Weather History for Cedar City, UT

Change the Weather History Date:

Thursday, January 10, 2013

  Actual Average Record
Temperature  
Mean Temperature 32 °F 29 °F  
Max Temperature 43 °F 41 °F 67 °F (1990)
Min Temperature 20 °F 16 °F -6 °F (2011)
Degree Days  
Heating Degree Days 33 36  
Month to date heating degree days 491 367  
Since 1 July heating degree days 2709 2929  
Cooling Degree Days 0 0  
Month to date cooling degree days 0 0  
Year to date cooling degree days 0 0  
Moisture  
Dew Point 21 °F    
Average Humidity 64    
Maximum Humidity 92    
Minimum Humidity 36    
Precipitation  
Precipitation 0.18 in 0.03 in 0.35 in (1949)
Month to date precipitation 0.18 0.29  
Year to date precipitation 0.18 0.29  
Sea Level Pressure  
Sea Level Pressure 29.62 in    
Wind  
Wind Speed 18 mph (SSW)    
Max Wind Speed 37 mph    
Max Gust Speed 47 mph    
Visibility 8 miles    
Events Fog , Snow    
T = Trace of Precipitation, MM = Missing Value Source: NWS Daily Summary

Daily Weather History Graph

Daily Weather History Graph

Search for Another Location

Airport:

Trip Planner

Search our weather history database for the weather conditions in past years. The results will help you decide how hot, cold, wet, or windy it might be!

Date:

Astronomy

Jan. 10, 2013 Rise Set
Actual Time 7:47 AM MST 5:32 PM MST
Civil Twilight 7:18 AM MST 6:01 PM MST
Nautical Twilight 6:46 AM MST 6:34 PM MST
Astronomical Twilight 6:14 AM MST 7:05 PM MST
Moon 6:31 AM MST (1/10) 4:44 PM MST (1/10)
Length of Visible Light 10h 43m
Length of Day
9h 45m
Waning Crescent, 2% of the Moon is Illuminated
Jan 10
Waning Crescent
Jan 11
New
Jan 18
First Quarter
Jan 26
Full
Feb 3
Last Quarter

Hourly Weather History & Observations

Time (MST) Temp. Windchill Dew Point Humidity Pressure Visibility Wind Dir Wind Speed Gust Speed Precip Events Conditions
12:53 AM 39.0 °F 29.6 °F 21.9 °F 50% 29.86 in 10.0 mi SW 18.4 mph 24.2 mph N/A   Clear
1:53 AM 39.0 °F 29.9 °F 21.0 °F 49% 29.83 in 10.0 mi South 17.3 mph - N/A   Clear
2:53 AM 37.0 °F 28.9 °F 21.0 °F 52% 29.81 in 10.0 mi SSW 12.7 mph 21.9 mph N/A   Clear
3:53 AM 37.0 °F 28.9 °F 21.0 °F 52% 29.78 in 10.0 mi SSW 12.7 mph - N/A   Clear
4:53 AM 39.0 °F 30.6 °F 19.0 °F 45% 29.73 in 10.0 mi SSW 15.0 mph - N/A   Clear
5:53 AM 37.0 °F 29.3 °F 19.0 °F 48% 29.72 in 10.0 mi SW 11.5 mph - N/A   Clear
6:53 AM 42.1 °F 32.1 °F 19.0 °F 40% 29.68 in 10.0 mi South 25.3 mph 34.5 mph N/A   Overcast
7:53 AM 41.0 °F 30.2 °F 19.0 °F 41% 29.68 in 10.0 mi South 27.6 mph 36.8 mph N/A   Scattered Clouds
8:53 AM 39.9 °F 28.6 °F 19.0 °F 43% 29.64 in 10.0 mi South 28.8 mph 35.7 mph N/A   Clear
9:53 AM 42.1 °F 31.5 °F 19.9 °F 41% 29.60 in 10.0 mi South 28.8 mph 41.4 mph N/A   Clear
10:53 AM 42.1 °F 31.1 °F 19.9 °F 41% 29.59 in 10.0 mi South 31.1 mph 43.7 mph N/A   Clear
11:53 AM 43.0 °F 33.5 °F 21.0 °F 42% 29.55 in 10.0 mi South 24.2 mph 39.1 mph N/A   Partly Cloudy
12:53 PM 42.1 °F 32.3 °F 21.9 °F 45% 29.51 in 10.0 mi South 24.2 mph 35.7 mph N/A   Overcast
1:53 PM 41.0 °F 31.4 °F 23.0 °F 49% 29.50 in 10.0 mi SW 21.9 mph 31.1 mph N/A   Overcast
2:53 PM 39.0 °F 28.8 °F 24.1 °F 55% 29.51 in 10.0 mi SSW 21.9 mph 38.0 mph N/A   Overcast
3:53 PM 37.9 °F 27.6 °F 25.0 °F 60% 29.49 in 10.0 mi SSW 20.7 mph 33.4 mph N/A   Overcast
4:53 PM 37.0 °F 27.0 °F 24.1 °F 59% 29.49 in 10.0 mi SSW 18.4 mph 34.5 mph 0.00 in   Overcast
5:10 PM 33.8 °F 21.6 °F 26.6 °F 75% 29.57 in 1.5 mi West 23.0 mph 42.6 mph 0.00 in Snow Light Snow
5:13 PM 28.4 °F 15.4 °F 24.8 °F 86% 29.58 in 0.8 mi West 19.6 mph 40.3 mph 0.00 in Snow Light Snow
5:19 PM 26.6 °F 16.2 °F 24.8 °F 93% 29.58 in 0.2 mi SW 11.5 mph 29.9 mph 0.01 in Fog , Snow Heavy Snow
5:28 PM 26.6 °F 14.3 °F 24.8 °F 93% 29.59 in 0.2 mi West 16.1 mph 23.0 mph 0.03 in Fog , Snow Heavy Snow
5:35 PM 26.6 °F 15.2 °F 24.8 °F 93% 29.58 in 0.2 mi West 13.8 mph 23.0 mph 0.04 in Fog , Snow Heavy Snow
5:53 PM 25.0 °F 17.1 °F 24.1 °F 96% 29.62 in 0.2 mi West 6.9 mph 16.1 mph 0.10 in Fog , Snow Heavy Snow
6:20 PM 24.8 °F - 24.8 °F 100% 29.60 in 0.5 mi Calm Calm - 0.07 in Fog , Snow Snow
6:28 PM 24.8 °F - 23.0 °F 93% 29.59 in 2.0 mi Calm Calm - 0.07 in Snow Light Snow
6:35 PM 24.8 °F - 21.2 °F 86% 29.60 in 5.0 mi Calm Calm - 0.07 in Snow Light Snow
6:53 PM 25.0 °F 20.7 °F 23.0 °F 92% 29.60 in 9.0 mi SSW 3.5 mph - 0.08 in   Overcast
7:00 PM 24.8 °F 17.9 °F 21.2 °F 86% 29.61 in 10.0 mi SW 5.8 mph - N/A   Overcast
7:14 PM 24.8 °F 16.1 °F 19.4 °F 80% 29.62 in 10.0 mi SW 8.1 mph - N/A   Overcast
7:53 PM 24.1 °F 13.7 °F 19.0 °F 81% 29.62 in 10.0 mi South 10.4 mph - 0.00 in   Overcast
8:53 PM 23.0 °F 12.4 °F 17.1 °F 78% 29.61 in 10.0 mi South 10.4 mph - N/A   Overcast
9:53 PM 21.9 °F 11.7 °F 15.1 °F 75% 29.62 in 10.0 mi SW 9.2 mph - N/A   Overcast
10:53 PM 21.0 °F 10.6 °F 15.1 °F 78% 29.63 in 10.0 mi SW 9.2 mph - N/A   Overcast
11:53 PM 19.9 °F 8.6 °F 14.0 °F 78% 29.64 in 10.0 mi SW 10.4 mph - N/A   Overcast